Location: La Oliva
(42.2466°N, 2.9955°E)
Time: 08:10:32
(UTC+00:00)

Cosmos 2219 Rocket - Pass Details

Date: 22 April 2021
Orbit: 826 x 848 km, 71.0° (Epoch: 07 May)

Event Time Altitude Azimuth Distance (km) Brightness Sun altitude
Rises 19:46:27 0° 329° (NNW) 3,419 6.5 -12.5°
Reaches altitude 10° 19:49:01 10° 322° (NW) 2,479 5.8 -12.9°
Maximum altitude 19:54:19 41° 254° (WSW) 1,204 3.4 -13.7°
Drops below altitude 10° 19:59:34 10° 185° (S) 2,457 4.4 -14.6°
Enters shadow 20:01:41 - 179° (S) 3,222 4.9 -14.9°
